[[{"header":{"parameterUnit":"m.s-1","parameterCategory":2,"la1":30.2992,"la2":30.254,"lo1":-89.0895,"lo2":-89.0443,"dy":0.0025,"dx":0.0025,"nx":19,"ny":19,"refTime":"2026-04-20T21:00:00:Z","depth":"0","parameterNumber":2,"parameterNumberName":"U-component_of_CURRENTS"},"data":[0,0,0,-0.2685,-0.2687,-0.2744,-0.2744,-0.2798,-0.2798,0,0,0,0,0,0,0,0,0,0,0,-0.2654,-0.2654,-0.2685,-0.2687,-0.2744,-0.2744,-0.2797,-0.2798,0,0,0,0,0,0,0,0,0,0,0,-0.2654,-0.2654,-0.2654,-0.2687,-0.2744,-0.2744,-0.2797,-0.2758,0,0,0,0,0,0,0,0,0,0,-0.2704,-0.2672,-0.2654,-0.2654,-0.2687,-0.2744,-0.2744,-0.2756,-0.276,-0.2768,0,-0.2773,0,-0.2795,-0.2802,-0.2802,0,0,0,-0.2682,-0.2668,-0.2695,-0.2654,-0.2688,-0.2744,-0.2717,-0.2759,-0.2763,-0.2773,-0.2774,-0.2777,-0.2795,-0.2802,-0.2802,-0.2872,-0.2872,0,0,-0.2678,-0.2655,-0.2692,-0.2698,-0.2698,-0.2715,-0.2718,-0.2762,-0.2757,-0.2775,-0.2779,-0.2796,-0.2802,-0.2803,-0.2871,-0.2872,0,0,0,-0.2673,-0.2652,-0.2678,-0.2695,-0.2711,-0.2717,-0.2721,-0.2755,-0.2767,-0.2779,-0.2797,-0.2803,-0.2803,-0.2871,-0.2872,-0.2882,0,0,0,-0.2671,-0.265,-0.2676,-0.2662,-0.2711,-0.2735,-0.2713,-0.2763,-0.277,-0.2797,-0.2803,-0.2804,-0.2871,-0.2871,-0.2881,-0.2882,0,0,0,-0.2652,-0.2648,-0.2656,-0.266,-0.2691,-0.2735,-0.2749,-0.2765,-0.2781,-0.2802,-0.2804,-0.287,-0.2871,-0.288,-0.2881,-0.2859,0,0,0,-0.2625,-0.2646,-0.2655,-0.2693,-0.269,-0.2762,-0.2749,-0.2792,-0.2813,-0.2803,-0.2871,-0.2872,-0.288,-0.288,-0.2858,-0.2652,-0.2637,0,0,-0.2643,-0.2647,-0.2676,-0.2687,-0.2751,-0.2754,-0.2813,-0.2826,-0.2826,-0.2853,-0.2855,-0.2882,-0.2881,-0.2858,-0.2701,-0.2683,0,0,0,-0.2679,-0.2685,-0.2712,-0.2747,-0.2801,-0.2829,-0.2852,-0.2856,-0.2871,-0.2844,-0.2896,-0.2895,-0.288,-0.2756,-0.2743,-0.2637,-0.2875,-0.2875,-0.2875,-0.2637,-0.2688,-0.2728,-0.2785,-0.2831,-0.2881,-0.29,-0.2907,-0.2908,-0.2912,-0.2915,-0.292,-0.2789,-0.2777,-0.2673,-0.2929,-0.2929,-0.2929,-0.2929,-0.264,-0.265,-0.2722,-0.2774,-0.2828,-0.2873,-0.2931,-0.2932,-0.2941,-0.2941,-0.2925,-0.2787,-0.2763,-0.2657,-0.293,-0.293,-0.293,-0.2929,-0.2929,-0.2579,-0.2588,-0.2637,-0.2706,-0.2769,-0.2847,-0.2876,-0.2925,-0.2939,-0.2943,-0.2778,-0.2774,-0.2668,-0.2923,-0.2923,-0.2923,-0.2923,-0.2923,-0.2923,-0.2475,-0.253,-0.2539,-0.2632,-0.2662,-0.2733,-0.2834,-0.2847,-0.2805,-0.2769,-0.2767,-0.2643,-0.2918,-0.2904,-0.2921,-0.2922,-0.2922,-0.2922,-0.2922,-0.2355,-0.2388,-0.2397,-0.2423,-0.2507,-0.2488,-0.2645,-0.2599,-0.2625,-0.2552,-0.2413,-0.2663,-0.2631,-0.2639,-0.2618,-0.2561,-0.2561,-0.2561,-0.2561,-0.2239,-0.2273,-0.2235,-0.2245,-0.2286,-0.2359,-0.2232,-0.2233,-0.2197,-0.2119,-0.2211,-0.2155,-0.2174,-0.2116,-0.2136,-0.2105,-0.1919,-0.1919,-0.1918,-0.2126,-0.2152,-0.2066,-0.2117,-0.2161,-0.2162,-0.1959,-0.183,-0.1819,-0.1892,-0.2111,-0.2138,-0.2064,-0.2103,-0.2021,-0.2057,-0.2011,0,0]},{"header":{"parameterUnit":"m.s-1","parameterCategory":2,"la1":30.2992,"la2":30.254,"lo1":-89.0895,"lo2":-89.0443,"dy":0.0025,"dx":0.0025,"nx":19,"ny":19,"refTime":"2026-04-20T21:00:00:Z","depth":"0","parameterNumber":3,"parameterNumberName":"V-component_of_CURRENTS"},"data":[0,0,0,-0.0539,-0.0538,-0.0453,-0.0452,-0.03,-0.0299,0,0,0,0,0,0,0,0,0,0,0,-0.0568,-0.0568,-0.0539,-0.0538,-0.0453,-0.0452,-0.03,-0.0299,0,0,0,0,0,0,0,0,0,0,0,-0.0568,-0.0568,-0.0567,-0.0538,-0.0453,-0.0452,-0.0301,-0.0371,0,0,0,0,0,0,0,0,0,0,-0.0457,-0.0501,-0.0568,-0.0567,-0.0537,-0.0453,-0.0452,-0.0375,-0.0367,-0.0332,0,-0.0331,0,-0.0319,-0.0289,-0.0289,0,0,0,-0.0519,-0.0508,-0.0484,-0.0567,-0.0537,-0.0453,-0.0486,-0.037,-0.0361,-0.0321,-0.0329,-0.0324,-0.0316,-0.0288,-0.0288,-0.0201,-0.0201,0,0,-0.0524,-0.0547,-0.0491,-0.0479,-0.0529,-0.0489,-0.0484,-0.0365,-0.0361,-0.0328,-0.032,-0.0314,-0.0288,-0.0286,-0.0201,-0.0201,0,0,0,-0.055,-0.055,-0.053,-0.0485,-0.0477,-0.0487,-0.0481,-0.0366,-0.036,-0.0318,-0.0312,-0.0287,-0.0285,-0.0201,-0.0201,-0.0295,0,0,0,-0.0552,-0.0566,-0.0532,-0.0544,-0.048,-0.0428,-0.0484,-0.0368,-0.0354,-0.0313,-0.0287,-0.0284,-0.02,-0.0201,-0.0292,-0.033,0,0,0,-0.0569,-0.0568,-0.0563,-0.0546,-0.0517,-0.043,-0.0416,-0.0364,-0.0351,-0.0289,-0.0283,-0.02,-0.0201,-0.0289,-0.0326,-0.027,0,0,0,-0.0587,-0.0616,-0.0564,-0.0591,-0.0518,-0.0496,-0.0416,-0.0384,-0.0341,-0.0286,-0.0201,-0.0201,-0.0289,-0.0323,-0.0268,-0.0168,-0.0166,0,0,-0.0642,-0.0623,-0.064,-0.0592,-0.0606,-0.0506,-0.0491,-0.0399,-0.0327,-0.0232,-0.023,-0.0293,-0.0325,-0.0269,-0.0183,-0.018,0,0,0,-0.067,-0.0685,-0.0679,-0.067,-0.0625,-0.0571,-0.0477,-0.0418,-0.0334,-0.0305,-0.0271,-0.0288,-0.025,-0.0186,-0.0184,0.0015,-0.0202,-0.0202,-0.0202,-0.0764,-0.0744,-0.0774,-0.0741,-0.0713,-0.0608,-0.0551,-0.0446,-0.038,-0.0355,-0.0349,-0.0352,-0.0288,-0.0285,-0.0082,-0.0332,-0.0332,-0.0332,-0.0332,-0.0861,-0.0884,-0.0843,-0.0869,-0.0792,-0.0758,-0.061,-0.0544,-0.0429,-0.0399,-0.0356,-0.0271,-0.0288,-0.0072,-0.0338,-0.0337,-0.0336,-0.0336,-0.0335,-0.093,-0.0942,-0.0947,-0.0965,-0.0938,-0.0843,-0.0763,-0.0653,-0.0511,-0.0484,-0.0327,-0.0324,-0.014,-0.044,-0.044,-0.044,-0.044,-0.044,-0.044,-0.1,-0.1006,-0.1056,-0.1062,-0.1066,-0.1018,-0.0852,-0.0739,-0.0526,-0.0404,-0.0401,-0.0105,-0.0383,-0.0385,-0.0439,-0.0439,-0.0439,-0.0439,-0.0439,-0.1088,-0.1087,-0.1168,-0.1193,-0.1196,-0.1129,-0.0976,-0.0662,-0.0516,-0.037,-0.0022,-0.0319,-0.0258,-0.0257,-0.0254,-0.027,-0.027,-0.027,-0.027,-0.114,-0.1149,-0.1247,-0.1295,-0.1302,-0.118,-0.0935,-0.0593,-0.0122,0.0117,0.0158,0.0208,0.0192,0.0283,0.0271,0.0287,0.0408,0.0409,0.041,-0.1187,-0.1218,-0.1286,-0.1335,-0.1343,-0.1202,-0.0919,-0.0439,0.0217,0.0455,0.0414,0.0386,0.0472,0.0432,0.0582,0.055,0.0578,0,0]}],[{"header":{"parameterUnit":"m.s-1","parameterCategory":2,"la1":30.2992,"la2":30.254,"lo1":-89.0895,"lo2":-89.0443,"dy":0.0025,"dx":0.0025,"nx":19,"ny":19,"refTime":"2026-04-20T21:00:00:Z","depth":"2","parameterNumber":2,"parameterNumberName":"U-component_of_CURRENTS"},"data":[0,0,0,-0.2375,-0.2376,-0.2436,-0.2436,-0.2475,-0.2475,0,0,0,0,0,0,0,0,0,0,0,-0.2345,-0.2345,-0.2375,-0.2376,-0.2436,-0.2436,-0.2475,-0.2475,0,0,0,0,0,0,0,0,0,0,0,-0.2345,-0.2345,-0.2346,-0.2377,-0.2436,-0.2436,-0.2475,-0.2438,0,0,0,0,0,0,0,0,0,0,-0.2384,-0.2358,-0.2345,-0.2346,-0.2377,-0.2436,-0.2437,-0.2436,-0.244,-0.2439,0,-0.2448,0,-0.2468,-0.2478,-0.2478,0,0,0,-0.2371,-0.2355,-0.238,-0.2346,-0.2378,-0.2436,-0.2408,-0.2439,-0.2443,-0.2443,-0.2448,-0.245,-0.2469,-0.2478,-0.2478,-0.2534,-0.2534,0,0,-0.2368,-0.2348,-0.2377,-0.2382,-0.2392,-0.2406,-0.241,-0.2442,-0.2439,-0.2449,-0.2452,-0.247,-0.2478,-0.2478,-0.2533,-0.2534,0,0,0,-0.2362,-0.2345,-0.237,-0.238,-0.2397,-0.2408,-0.2412,-0.2438,-0.2449,-0.2452,-0.247,-0.2478,-0.2479,-0.2533,-0.2534,-0.2557,0,0,0,-0.2359,-0.2343,-0.2368,-0.2356,-0.2397,-0.2423,-0.2407,-0.2446,-0.2451,-0.247,-0.2478,-0.2479,-0.2533,-0.2533,-0.2555,-0.2558,0,0,0,-0.2343,-0.2341,-0.2349,-0.2355,-0.2386,-0.2423,-0.2435,-0.2448,-0.2462,-0.2478,-0.2479,-0.2532,-0.2533,-0.2554,-0.2556,-0.2535,0,0,0,-0.2318,-0.2339,-0.2349,-0.2385,-0.2385,-0.2451,-0.2435,-0.2476,-0.2494,-0.2478,-0.2533,-0.2534,-0.2554,-0.2555,-0.2534,-0.2333,-0.232,0,0,-0.2336,-0.234,-0.2367,-0.2378,-0.2437,-0.2442,-0.2497,-0.2507,-0.2504,-0.2517,-0.2519,-0.2556,-0.2556,-0.2534,-0.2384,-0.2368,0,0,0,-0.2368,-0.2376,-0.24,-0.2434,-0.2483,-0.2512,-0.2532,-0.2536,-0.2551,-0.252,-0.2567,-0.2567,-0.2552,-0.243,-0.2419,-0.2538,-0.2538,-0.2537,-0.2537,-0.2335,-0.238,-0.2417,-0.2469,-0.2512,-0.2561,-0.2581,-0.2587,-0.2585,-0.2594,-0.2594,-0.2606,-0.2478,-0.2466,-0.2608,-0.2608,-0.2608,-0.2608,-0.2608,-0.2339,-0.2348,-0.2414,-0.2463,-0.2515,-0.2559,-0.2614,-0.2618,-0.2628,-0.2627,-0.2611,-0.2472,-0.2454,-0.261,-0.261,-0.2609,-0.2609,-0.2609,-0.2609,-0.2286,-0.2294,-0.2341,-0.2405,-0.2468,-0.2543,-0.2571,-0.2623,-0.2635,-0.2641,-0.2476,-0.2472,-0.2595,-0.2623,-0.2623,-0.2623,-0.2623,-0.2623,-0.2623,-0.2193,-0.2244,-0.2254,-0.2343,-0.2373,-0.2442,-0.2541,-0.255,-0.251,-0.2477,-0.2475,-0.261,-0.2609,-0.2596,-0.2622,-0.2622,-0.2622,-0.2622,-0.2622,-0.2085,-0.2117,-0.2125,-0.2151,-0.2227,-0.2197,-0.2353,-0.2306,-0.2334,-0.226,-0.2367,-0.2374,-0.2337,-0.2344,-0.2323,-0.2277,-0.2277,-0.2277,-0.2277,-0.1981,-0.2012,-0.1976,-0.1981,-0.201,-0.2067,-0.1928,-0.191,-0.1978,-0.197,-0.1984,-0.1936,-0.1955,-0.1896,-0.1913,-0.1884,-0.1724,-0.1723,-0.1723,-0.1879,-0.19,-0.1819,-0.186,-0.1886,-0.1864,-0.1643,-0.1461,-0.1498,-0.1706,-0.1943,-0.2229,-0.2194,-0.2211,-0.215,-0.2166,-0.2131,0,0]},{"header":{"parameterUnit":"m.s-1","parameterCategory":2,"la1":30.2992,"la2":30.254,"lo1":-89.0895,"lo2":-89.0443,"dy":0.0025,"dx":0.0025,"nx":19,"ny":19,"refTime":"2026-04-20T21:00:00:Z","depth":"2","parameterNumber":3,"parameterNumberName":"V-component_of_CURRENTS"},"data":[0,0,0,-0.0453,-0.0452,-0.0374,-0.0374,-0.023,-0.0229,0,0,0,0,0,0,0,0,0,0,0,-0.0479,-0.0479,-0.0453,-0.0452,-0.0374,-0.0374,-0.0231,-0.0229,0,0,0,0,0,0,0,0,0,0,0,-0.0479,-0.0479,-0.0479,-0.0452,-0.0374,-0.0374,-0.0231,-0.0296,0,0,0,0,0,0,0,0,0,0,-0.0375,-0.0417,-0.0479,-0.0479,-0.0451,-0.0375,-0.0374,-0.0299,-0.0292,-0.0259,0,-0.0259,0,-0.0248,-0.022,-0.022,0,0,0,-0.0434,-0.0423,-0.0401,-0.0479,-0.0451,-0.0375,-0.0404,-0.0295,-0.0287,-0.0249,-0.0257,-0.0252,-0.0245,-0.0219,-0.0219,-0.013,-0.0131,0,0,-0.0438,-0.046,-0.0407,-0.0396,-0.0445,-0.0407,-0.0402,-0.0291,-0.0287,-0.0256,-0.0248,-0.0243,-0.0219,-0.0218,-0.013,-0.013,0,0,0,-0.0463,-0.0463,-0.0444,-0.0402,-0.0395,-0.0405,-0.0399,-0.0292,-0.0286,-0.0247,-0.0241,-0.0218,-0.0216,-0.013,-0.013,-0.022,0,0,0,-0.0464,-0.0478,-0.0446,-0.0458,-0.0398,-0.035,-0.0404,-0.0294,-0.0281,-0.0242,-0.0218,-0.0215,-0.013,-0.013,-0.0218,-0.0263,0,0,0,-0.048,-0.048,-0.0476,-0.0459,-0.0434,-0.0352,-0.0339,-0.0291,-0.0278,-0.022,-0.0215,-0.013,-0.013,-0.0215,-0.0258,-0.0218,0,0,0,-0.0497,-0.0523,-0.0476,-0.0499,-0.0435,-0.0411,-0.034,-0.0308,-0.0267,-0.0217,-0.013,-0.013,-0.0215,-0.0255,-0.0217,-0.0145,-0.0146,0,0,-0.0545,-0.0529,-0.0543,-0.05,-0.0511,-0.042,-0.0405,-0.032,-0.0251,-0.016,-0.0158,-0.0218,-0.0258,-0.0218,-0.0149,-0.015,0,0,0,-0.0569,-0.0583,-0.0577,-0.0568,-0.0525,-0.0478,-0.0391,-0.0335,-0.0255,-0.023,-0.0194,-0.0216,-0.0188,-0.0141,-0.0142,-0.0131,-0.0131,-0.0131,-0.0131,-0.0656,-0.0636,-0.0663,-0.0633,-0.0606,-0.051,-0.0459,-0.0361,-0.0296,-0.0271,-0.0272,-0.0281,-0.0233,-0.0233,-0.0246,-0.0247,-0.0247,-0.0247,-0.0248,-0.0744,-0.0768,-0.073,-0.0754,-0.0686,-0.0654,-0.0517,-0.0454,-0.0352,-0.0317,-0.0284,-0.0217,-0.0239,-0.0254,-0.0253,-0.0252,-0.0251,-0.0251,-0.025,-0.0811,-0.0823,-0.0829,-0.085,-0.0829,-0.0742,-0.0679,-0.057,-0.0437,-0.0415,-0.0289,-0.0286,-0.0321,-0.0379,-0.0379,-0.0379,-0.0379,-0.0379,-0.0379,-0.0881,-0.0887,-0.0939,-0.0947,-0.0958,-0.0921,-0.0774,-0.0675,-0.0484,-0.0371,-0.0369,-0.0324,-0.032,-0.0326,-0.038,-0.038,-0.038,-0.038,-0.038,-0.0969,-0.0969,-0.1052,-0.1082,-0.1097,-0.1051,-0.0914,-0.0647,-0.0516,-0.0391,-0.0308,-0.0309,-0.0258,-0.0255,-0.0257,-0.029,-0.029,-0.029,-0.029,-0.1025,-0.1033,-0.1137,-0.1193,-0.1214,-0.1111,-0.0918,-0.0623,-0.0358,-0.0236,-0.0239,-0.0216,-0.022,-0.0165,-0.0164,-0.0163,-0.0173,-0.0173,-0.0172,-0.1076,-0.1107,-0.1182,-0.1236,-0.1263,-0.1149,-0.0918,-0.0508,-0.0163,-0.0172,-0.0258,-0.0275,-0.0247,-0.0252,-0.0168,-0.0166,-0.0165,0,0]}],[{"header":{"parameterUnit":"m.s-1","parameterCategory":2,"la1":30.2992,"la2":30.254,"lo1":-89.0895,"lo2":-89.0443,"dy":0.0025,"dx":0.0025,"nx":19,"ny":19,"refTime":"2026-04-20T21:00:00:Z","depth":"4","parameterNumber":2,"parameterNumberName":"U-component_of_CURRENTS"},"data":[0,0,0,-0.1758,-0.1761,-0.1901,-0.1901,-0.1973,-0.1973,0,0,0,0,0,0,0,0,0,0,0,-0.1712,-0.1714,-0.1758,-0.1761,-0.1901,-0.1901,-0.1973,-0.1973,0,0,0,0,0,0,0,0,0,0,0,-0.1712,-0.1713,-0.1715,-0.1762,-0.19,-0.1901,-0.1973,-0.1894,0,0,0,0,0,0,0,0,0,0,-0.1771,-0.1748,-0.1713,-0.1715,-0.1762,-0.19,-0.1901,-0.1891,-0.1898,-0.1879,0,-0.1912,0,-0.1941,-0.1976,-0.1976,0,0,0,-0.176,-0.1742,-0.1777,-0.1715,-0.1764,-0.19,-0.1837,-0.1896,-0.1904,-0.1889,-0.1913,-0.1917,-0.1943,-0.1976,-0.1976,-0.2042,-0.2043,0,0,-0.1752,-0.1737,-0.1771,-0.1782,-0.1812,-0.1833,-0.1842,-0.1902,-0.1914,-0.1913,-0.1919,-0.1944,-0.1976,-0.1976,-0.2042,-0.2043,0,0,0,-0.1731,-0.1731,-0.1767,-0.1779,-0.1812,-0.1837,-0.1847,-0.1912,-0.1924,-0.192,-0.1945,-0.1976,-0.1977,-0.2041,-0.2042,-0.2081,0,0,0,-0.1726,-0.1719,-0.1764,-0.1755,-0.1811,-0.1879,-0.1855,-0.192,-0.1928,-0.1944,-0.1976,-0.1977,-0.2041,-0.2042,-0.2079,-0.2083,0,0,0,-0.1704,-0.1717,-0.1736,-0.1754,-0.1815,-0.1879,-0.1896,-0.1923,-0.1942,-0.1976,-0.1977,-0.2041,-0.2042,-0.2077,-0.208,-0.2063,0,0,0,-0.1677,-0.1711,-0.1736,-0.1788,-0.1814,-0.19,-0.1896,-0.1965,-0.1999,-0.1976,-0.2041,-0.2042,-0.2077,-0.2078,-0.2062,-0.1791,0,0,0,-0.1699,-0.1714,-0.1744,-0.177,-0.1844,-0.1879,-0.1956,-0.2,-0.2004,-0.2012,-0.2015,-0.208,-0.208,-0.2063,-0.1858,0,0,0,0,-0.1737,-0.1756,-0.1785,-0.1839,-0.1903,-0.1962,-0.2012,-0.203,-0.2071,-0.203,-0.2091,-0.2089,-0.2077,-0.1917,-0.2047,-0.2047,-0.2047,-0.2047,-0.2047,-0.1719,-0.1764,-0.1815,-0.1878,-0.1939,-0.2023,-0.2066,-0.2096,-0.2101,-0.2128,-0.213,-0.2156,-0.1991,-0.2147,-0.2147,-0.2147,-0.2147,-0.2147,-0.2148,-0.1724,-0.1738,-0.1823,-0.189,-0.1967,-0.2038,-0.2114,-0.2138,-0.217,-0.2173,-0.216,-0.1982,-0.2152,-0.2151,-0.215,-0.215,-0.2149,-0.2149,-0.2149,-0.1673,-0.1684,-0.1756,-0.1852,-0.1949,-0.2047,-0.2088,-0.2164,-0.2191,-0.2205,-0.2005,-0.2167,-0.2151,-0.2196,-0.2196,-0.2196,-0.2196,-0.2196,-0.2196,-0.1572,-0.1643,-0.1686,-0.1808,-0.1865,-0.1955,-0.2077,-0.2083,-0.2142,-0.2007,-0.2208,-0.2171,-0.2169,-0.2153,-0.2195,-0.2195,-0.2195,-0.2195,-0.2195,-0.1466,-0.152,-0.1561,-0.1618,-0.173,-0.1772,-0.194,-0.1899,-0.1875,-0.1797,-0.1885,-0.1901,-0.1849,-0.1855,-0.1826,-0.1773,-0.1769,-0.1766,0,-0.1371,-0.1409,-0.1429,-0.1464,-0.1488,-0.1637,-0.155,-0.16,-0.1644,-0.1582,-0.1867,-0.1968,-0.1976,-0.1922,-0.1922,-0.1888,0,0,0,-0.1284,-0.1312,-0.1276,-0.1343,-0.1355,-0.1381,-0.1509,-0.1445,-0.1659,-0.156,-0.1681,-0.1703,-0.2022,-0.2194,-0.2151,-0.215,-0.2121,0,0]},{"header":{"parameterUnit":"m.s-1","parameterCategory":2,"la1":30.2992,"la2":30.254,"lo1":-89.0895,"lo2":-89.0443,"dy":0.0025,"dx":0.0025,"nx":19,"ny":19,"refTime":"2026-04-20T21:00:00:Z","depth":"4","parameterNumber":3,"parameterNumberName":"V-component_of_CURRENTS"},"data":[0,0,0,-0.031,-0.031,-0.0265,-0.0264,-0.0153,-0.0152,0,0,0,0,0,0,0,0,0,0,0,-0.0326,-0.0326,-0.031,-0.031,-0.0265,-0.0264,-0.0153,-0.0152,0,0,0,0,0,0,0,0,0,0,0,-0.0326,-0.0326,-0.0326,-0.031,-0.0265,-0.0264,-0.0153,-0.0197,0,0,0,0,0,0,0,0,0,0,-0.0246,-0.0278,-0.0326,-0.0326,-0.031,-0.0265,-0.0264,-0.0199,-0.0194,-0.0163,0,-0.0168,0,-0.0163,-0.0145,-0.0145,0,0,0,-0.0294,-0.0283,-0.0269,-0.0326,-0.0309,-0.0265,-0.0281,-0.0197,-0.0191,-0.0156,-0.0167,-0.0163,-0.0162,-0.0144,-0.0144,-0.0066,-0.0066,0,0,-0.0296,-0.0313,-0.0273,-0.0266,-0.0312,-0.0282,-0.0279,-0.0194,-0.0193,-0.0166,-0.0161,-0.016,-0.0143,-0.0143,-0.0066,-0.0066,0,0,0,-0.0314,-0.0315,-0.0304,-0.027,-0.0269,-0.0281,-0.0278,-0.0197,-0.0193,-0.0159,-0.0158,-0.0143,-0.0142,-0.0066,-0.0066,-0.0144,0,0,0,-0.0315,-0.0327,-0.0305,-0.0314,-0.0272,-0.0242,-0.0283,-0.0199,-0.019,-0.0159,-0.0143,-0.014,-0.0066,-0.0066,-0.0142,-0.0188,0,0,0,-0.0325,-0.0328,-0.0327,-0.0316,-0.0303,-0.0243,-0.0234,-0.0197,-0.0189,-0.0144,-0.014,-0.0066,-0.0066,-0.014,-0.0184,-0.0164,0,0,0,-0.0337,-0.0357,-0.0328,-0.0347,-0.0304,-0.0289,-0.0235,-0.0214,-0.0183,-0.0142,-0.0066,-0.0066,-0.0139,-0.0181,-0.0163,-0.0174,0,0,0,-0.0371,-0.0362,-0.0373,-0.0346,-0.0359,-0.0293,-0.0286,-0.0223,-0.0165,-0.0087,-0.0086,-0.0142,-0.0184,-0.0164,-0.0166,0,0,0,0,-0.0389,-0.0403,-0.04,-0.04,-0.037,-0.0345,-0.0278,-0.0234,-0.0169,-0.0148,-0.0118,-0.0141,-0.0126,-0.0127,-0.0065,-0.0065,-0.0065,-0.0065,-0.0065,-0.0453,-0.0441,-0.0468,-0.0452,-0.0436,-0.0372,-0.0336,-0.0258,-0.0201,-0.018,-0.0186,-0.0203,-0.0206,-0.0157,-0.0157,-0.0158,-0.0158,-0.0158,-0.0158,-0.0519,-0.054,-0.0524,-0.0552,-0.0512,-0.0495,-0.039,-0.034,-0.0261,-0.0223,-0.0204,-0.0188,-0.0166,-0.0164,-0.0163,-0.0162,-0.0162,-0.0161,-0.0161,-0.0565,-0.0577,-0.0596,-0.0633,-0.0636,-0.058,-0.0546,-0.0454,-0.034,-0.0326,-0.0275,-0.0237,-0.0249,-0.0302,-0.0302,-0.0302,-0.0302,-0.0303,-0.0303,-0.0607,-0.0625,-0.0686,-0.0716,-0.0745,-0.0736,-0.0638,-0.0566,-0.0444,-0.0363,-0.0341,-0.025,-0.0245,-0.0254,-0.0305,-0.0304,-0.0304,-0.0304,-0.0304,-0.0663,-0.0679,-0.0768,-0.0815,-0.0868,-0.0849,-0.077,-0.0596,-0.0517,-0.042,-0.0353,-0.035,-0.0314,-0.0308,-0.0317,-0.0388,-0.0389,-0.0389,0,-0.0699,-0.0714,-0.0834,-0.091,-0.0948,-0.0906,-0.0799,-0.0688,-0.0521,-0.0519,-0.0521,-0.0456,-0.0449,-0.0417,-0.0411,-0.0429,0,0,0,-0.0736,-0.0772,-0.0856,-0.0933,-0.0978,-0.0847,-0.0764,-0.0697,-0.0553,-0.0455,-0.0397,-0.0395,-0.0387,-0.0311,-0.0247,-0.0241,-0.0251,0,0]}]]